KB7BSA Weather Reports


time (UTC)temp
F
wind
direction
speed
knots
gust
knots
rain 1hr
in
rain 24hr
in
rain mn
in
humidity
%
barometer
mb
20260504081502 55 5 0.0 2.6 0.00 0.00 0.00 61 1090.0
20260504070103 54 197 0.0 0.0 0.00 0.00 0.00 65 1090.0
20260504044546 52 101 0.0 0.0 0.00 0.00 0.00 66 1090.0
20260504043047 52 102 0.0 0.0 0.00 0.00 0.00 65 1090.0
20260504041548 52 107 0.0 0.0 0.00 0.00 0.00 66 1090.0
20260504040045 53 107 0.0 0.0 0.00 0.00 0.00 65 1090.0
20260504034600 53 243 0.0 0.0 0.00 0.00 0.00 65 1090.0
20260504033044 53 240 0.0 0.0 0.00 0.00 0.00 63 1090.0
20260504031544 53 242 0.0 0.0 0.00 0.00 0.00 63 1090.0
20260504030044 53 246 0.0 0.0 0.00 0.00 0.00 65 1090.0
20260504024543 53 251 0.0 0.0 0.00 0.00 0.00 65 1090.0
20260504023042 53 251 0.0 0.0 0.00 0.00 0.00 63 1090.0
20260504021542 53 251 0.0 0.0 0.00 0.00 0.00 65 1090.0
20260504020041 53 252 0.0 0.0 0.00 0.00 0.00 64 1090.0
20260504014553 53 252 0.0 0.0 0.00 0.00 0.00 64 1090.0
20260504013042 53 253 0.0 0.0 0.00 0.00 0.00 64 1090.0
20260504011543 54 253 0.0 0.0 0.00 0.00 0.00 64 1090.0
20260504010039 55 253 0.0 0.0 0.00 0.00 0.00 64 1090.0
20260504004542 55 253 0.0 0.0 0.00 0.00 0.00 66 1090.0
20260504003048 56 253 0.0 0.0 0.00 0.00 0.00 65 1090.0
20260504001542 58 252 0.0 0.0 0.00 0.00 0.00 63 1090.0
20260504000038 60 252 0.0 0.0 0.00 0.00 0.00 61 1090.0
20260503234546 60 252 0.0 0.0 0.00 0.00 0.00 63 1090.0
20260503233036 61 252 0.0 0.0 0.00 0.00 0.00 59 1090.0
20260503231537 61 252 0.0 0.0 0.00 0.00 0.00 56 1090.0
20260503230041 62 252 0.0 0.0 0.00 0.00 0.00 59 1090.0
20260503224536 62 252 0.0 0.0 0.00 0.00 0.00 54 1090.0
20260503223035 63 248 0.0 0.0 0.00 0.00 0.00 53 1090.0
20260503221534 64 246 0.0 2.6 0.00 0.00 0.00 54 1090.0
20260503220045 65 252 0.0 0.9 0.00 0.00 0.00 50 1090.0
20260503214533 65 253 0.0 0.9 0.00 0.00 0.00 48 1090.0
20260503213033 65 262 0.0 3.5 0.00 0.00 0.00 48 1090.0
20260503211532 66 282 0.0 0.0 0.00 0.00 0.00 47 1090.0
20260503210032 66 267 0.0 0.9 0.00 0.00 0.00 45 1090.0
20260503204532 66 248 0.0 3.5 0.00 0.00 0.00 47 1090.0
20260503203032 66 251 0.0 0.9 0.00 0.00 0.00 48 1090.0
20260503201532 66 244 0.0 1.7 0.00 0.00 0.00 49 1090.0
20260503200030 66 255 0.0 2.6 0.00 0.00 0.00 52 1090.0
20260503194529 66 259 0.0 0.9 0.00 0.00 0.00 50 1090.0
20260503193032 65 314 0.0 2.6 0.00 0.00 0.00 51 1090.0
20260503191524 65 262 0.0 1.7 0.00 0.00 0.00 49 1090.0
20260503190031 65 236 0.0 0.9 0.00 0.00 0.00 48 1090.0
20260503184520 64 241 0.0 2.6 0.00 0.00 0.00 50 1090.0
20260503183026 63 221 0.0 3.5 0.00 0.00 0.00 48 1090.0
20260503181516 62 313 0.9 3.5 0.00 0.00 0.00 53 1090.0
20260503180019 61 266 0.0 4.3 0.00 0.00 0.00 50 1090.0
20260503174515 62 288 0.0 0.0 0.00 0.00 0.00 52 1090.0
20260503173014 61 278 0.0 2.6 0.00 0.00 0.00 54 1090.0
20260503171512 60 355 0.0 0.0 0.00 0.00 0.00 58 1090.0